Temp
35 34 34 36 36 38 39 39 39 40 40 40 34 27 27 32 38 38 37 37 36 36 36 35 34 33 32 31 30 29 28 28 27 27 26 26 26 27 27 27 27 26 25 25
35 33 36 37 38 37 38 38 39 41 38 39 39 33 33 35 39 39 38 37 37 37 36 35 34 34 32 31 30 28 28 28 27 27 26 25 26 27 27 27 27 26 25 25
34 36 37 38 37 37 38 38 39 40 40 40 40 39 39 39 39 39 39 39 38 37 37 35 34 34 33 31 29 28 27 27 26 27 26 26 26 27 27 27 28 26 26 25
36 37 38 37 37 38 37 39 40 40 39 37 39 36 37 39 39 39 39 39 38 38 37 36 35 34 33 32 30 28 27 27 26 26 26 26 26 26 28 28 28 27 26 25
35 37 37 37 37 39 38 40 40 40 39 38 38 37 39 39 38 39 39 39 40 39 38 37 35 34 34 33 30 29 27 27 26 26 26 26 26 27 28 28 28 27 26 26
37 39 38 39 39 39 40 39 40 40 40 37 38 37 38 39 37 38 40 40 40 40 39 38 37 35 34 33 31 30 27 27 26 26 26 26 26 27 28 29 27 27 25 25
36 37 39 39 38 39 39 38 36 36 37 37 40 37 37 39 39 39 35 40 40 40 40 38 37 35 34 33 32 30 28 27 26 26 25 26 26 27 27 28 28 27 26 25
34 34 37 39 38 38 38 38 37 34 36 37 40 39 40 41 39 39 37 41 41 41 40 39 37 36 34 33 32 31 28 27 26 26 26 25 26 26 27 27 28 28 28 27
35 35 39 38 39 39 38 37 39 37 38 38 40 40 42 42 40 40 41 42 42 41 40 39 38 36 35 33 32 31 29 27 26 26 26 26 26 26 27 27 27 27 28 28
36 35 38 39 39 39 38 39 36 37 34 35 38 38 39 40 39 40 39 42 42 43 41 40 39 37 36 34 33 32 30 28 27 26 26 26 25 26 26 27 27 27 27 28
37 36 37 38 37 37 37 37 37 38 38 37 36 39 42 40 40 40 41 42 42 42 41 41 40 38 36 35 33 32 31 29 27 27 26 26 26 26 26 26 27 27 27 27
37 36 35 37 39 39 38 37 37 36 35 37 38 39 43 42 41 42 42 42 42 41 41 41 40 39 37 35 34 32 31 30 28 27 27 26 26 26 26 26 26 27 27 27
38 35 34 35 37 39 38 38 38 37 37 36 36 38 42 39 38 39 41 41 41 41 40 40 41 38 37 36 34 33 32 31 29 28 27 27 27 26 26 26 26 26 26 26
36 36 34 35 35 37 36 37 38 37 36 36 38 38 39 38 38 38 39 40 41 40 39 40 40 38 37 36 34 33 33 32 31 29 28 28 27 27 26 26 26 26 26 25
36 33 35 36 36 37 37 37 37 37 37 36 38 38 39 40 39 39 41 40 40 40 39 39 39 37 35 35 34 34 33 33 32 31 29 28 28 27 27 27 26 26 26 24
35 32 33 34 36 36 36 37 38 37 37 37 38 38 41 41 41 40 37 39 39 39 40 38 37 37 36 35 34 34 34 33 33 32 30 30 28 28 27 27 27 26 26 25
33 33 32 32 34 35 34 36 37 38 38 37 36 38 39 39 38 39 40 39 39 39 40 39 37 37 37 37 35 34 33 34 33 32 31 30 29 28 27 27 27 26 26 25
32 31 32 32 33 31 35 38 38 37 38 39 38 38 38 38 38 38 39 38 37 39 39 38 40 37 36 37 37 35 34 33 33 32 31 31 30 28 27 27 27 26 26 24
34 31 31 31 32 33 35 36 37 36 36 38 37 37 39 39 39 38 39 39 39 39 39 38 40 40 36 36 37 35 34 33 33 32 32 31 31 29 28 27 27 26 25 24
33 31 31 31 30 31 34 37 35 35 33 35 35 35 36 36 34 37 39 40 40 40 40 39 40 40 35 35 36 34 34 32 32 32 31 31 30 29 28 27 26 25 24 22
28 29 30 30 30 32 33 34 35 31 32 32 33 34 34 34 34 35 36 38 38 38 38 39 39 36 35 35 35 33 33 32 31 32 30 30 29 29 28 26 25 24 22 21
27 27 28 30 29 29 33 31 30 31 32 33 32 33 33 34 35 35 35 37 37 37 39 37 36 35 34 34 34 32 31 31 30 30 29 28 28 27 27 25 24 23 21 20
26 29 29 30 31 29 31 31 30 31 31 30 30 32 34 34 35 36 35 35 35 36 36 37 34 32 32 32 32 30 30 30 29 29 28 27 26 26 24 22 22 21 20 19
27 23 27 29 29 29 29 30 30 31 29 28 29 29 30 33 34 34 33 33 33 33 33 33 31 31 30 30 30 29 29 29 28 27 25 23 23 21 21 21 20 19 19 19
19 19 22 29 28 28 28 29 29 28 27 26 25 25 25 24 23 29 28 29 30 29 28 28 28 29 28 27 27 27 27 27 24 23 22 20 20 20 20 19 19 19 19 19
15 18 19 22 19 24 25 27 27 26 26 25 24 23 23 21 20 22 22 24 27 27 26 26 26 25 25 25 25 26 24 23 22 22 21 21 19 19 19 18 17 18 18 19
Height
703 720 723 712 709 706 702 700 700 692 687 698 723 754 751 729 713 717 722 727 731 736 740 747 755 761 768 773 779 784 790 794 798 802 807 810 813 815 818 819 819 822 826 826
708 718 700 694 697 705 703 703 695 679 688 696 700 729 716 715 703 704 712 719 723 728 733 741 748 755 761 767 773 779 785 790 794 799 803 807 811 812 812 814 816 817 822 823
707 696 687 691 697 705 702 703 695 691 679 682 692 707 701 691 693 693 696 702 711 719 726 732 740 748 754 760 767 773 780 787 791 796 801 805 808 809 810 811 813 816 818 821
690 678 683 691 694 691 709 681 682 682 691 721 690 744 707 701 697 694 692 694 700 708 715 722 731 739 747 754 761 769 775 782 787 793 797 800 803 805 806 808 809 810 814 819
687 681 681 687 685 677 690 673 679 680 692 707 705 723 697 685 697 690 685 685 687 693 703 712 720 729 739 747 754 762 769 776 782 787 792 796 799 802 803 805 806 808 812 816
672 653 661 665 664 668 668 679 678 677 686 717 702 713 707 691 690 689 673 674 678 680 688 699 710 720 730 739 746 754 762 770 776 782 787 791 794 797 799 801 803 806 810 813
674 668 651 651 670 663 673 691 719 723 713 714 677 701 699 669 667 666 682 671 666 671 680 690 699 709 718 727 737 745 753 762 769 776 781 786 790 792 796 797 799 803 806 810
689 694 662 644 660 673 675 681 702 738 723 709 672 692 675 647 652 653 662 652 654 660 668 679 688 697 709 719 728 737 745 754 762 769 776 780 784 788 791 794 796 800 803 805
671 672 636 641 642 654 668 685 663 691 682 693 674 661 642 636 649 649 653 649 647 652 656 668 678 689 700 711 719 728 737 746 754 761 769 773 777 782 785 789 793 797 799 801
648 669 634 634 639 637 651 650 691 683 719 715 684 677 671 652 656 651 652 650 646 642 650 658 669 680 692 703 714 722 731 738 747 755 761 766 771 775 780 784 787 791 795 798
639 649 648 630 642 658 664 669 664 666 675 693 702 674 627 638 635 641 640 641 639 639 644 649 659 671 685 697 707 715 724 732 740 747 754 760 764 769 773 778 782 785 790 793
625 644 658 641 617 621 635 650 659 680 685 666 672 661 611 615 618 621 628 631 630 631 635 640 649 662 675 687 699 708 716 724 731 739 746 751 757 762 766 771 775 779 782 786
613 638 663 658 630 615 632 638 642 650 655 672 682 664 610 620 634 634 629 628 628 626 629 634 641 655 665 676 688 698 708 716 724 731 737 743 748 753 757 762 767 772 776 780
597 619 638 644 639 625 638 633 633 643 664 660 654 652 628 631 632 635 626 628 624 626 628 633 639 646 656 665 675 686 697 706 715 722 729 733 738 742 748 754 759 764 768 771
602 632 620 620 617 615 618 627 629 640 640 655 640 641 628 618 625 620 618 625 626 626 629 632 636 641 648 657 667 676 686 696 704 712 718 722 728 735 741 746 751 757 761 763
598 631 626 625 612 615 620 613 613 618 627 629 631 633 607 603 603 612 618 627 624 623 622 627 631 636 642 650 659 666 675 684 695 702 708 714 721 728 733 739 745 749 753 757
609 617 635 643 619 618 634 610 609 611 611 620 640 621 608 612 612 610 610 611 619 615 616 619 628 633 637 642 650 660 667 675 685 692 699 706 712 717 724 731 737 742 747 752
601 617 625 637 632 657 602 589 595 604 601 599 605 607 607 608 604 603 604 610 613 608 610 612 616 625 631 636 643 652 662 669 675 683 690 697 703 709 717 724 730 735 740 745
584 608 629 635 637 621 611 596 600 607 610 593 601 602 597 595 598 601 594 596 602 606 603 604 607 613 622 628 634 644 653 661 668 675 682 688 695 702 710 717 724 730 735 741
586 595 617 624 637 639 606 587 585 596 634 603 602 606 606 603 626 608 588 586 591 594 597 599 601 604 611 620 628 637 645 653 660 667 674 682 689 697 705 712 719 726 731 736
611 612 621 623 629 616 592 587 588 638 629 608 607 609 608 614 608 598 591 586 583 585 588 593 597 601 607 615 623 632 639 647 655 666 672 679 687 694 702 709 716 721 728 735
622 627 627 618 630 638 588 604 627 609 599 604 607 606 607 600 594 592 591 586 583 584 579 586 593 601 606 613 621 631 639 647 657 666 673 680 687 695 701 707 715 721 727 733
628 612 620 611 612 602 591 604 602 599 604 608 609 601 599 597 592 581 584 586 588 587 590 590 595 605 612 618 624 632 639 648 657 666 674 682 689 695 699 706 711 721 726 731
612 621 614 609 602 600 600 603 599 598 606 614 612 607 603 597 594 593 591 593 594 595 599 600 603 611 621 626 631 635 642 651 659 666 674 681 687 694 702 707 716 720 725 730
658 649 635 602 601 612 609 610 610 612 616 623 623 621 619 620 628 617 609 607 607 606 609 612 616 622 630 636 640 643 648 655 663 668 677 684 690 696 702 710 716 720 725 729
668 660 652 639 634 615 622 619 618 620 619 622 629 631 632 633 638 640 633 624 621 621 624 626 629 637 643 644 648 651 654 659 669 673 680 687 693 703 706 711 717 720 725 728
Wind_Speed
20 16 20 25 25 23 22 21 22 14 3 18 22 17 11 26 20 18 18 17 19 19 19 26 27 28 26 28 27 28 25 24 20 19 19 15 13 13 17 18 15 14 9 8
19 24 24 23 25 26 27 27 24 21 24 23 18 27 32 30 21 20 20 19 19 20 20 19 27 27 29 27 30 30 29 24 25 19 18 17 20 21 22 18 16 12 12 7
24 22 24 24 25 27 27 26 23 22 19 21 18 19 21 23 20 18 19 22 21 20 20 21 22 28 28 30 32 31 30 27 26 21 21 21 17 19 13 21 12 14 13 11
25 25 25 26 28 27 26 26 27 24 16 11 14 12 11 18 22 21 20 18 22 21 21 20 22 27 28 29 31 31 31 30 27 29 23 23 19 15 11 11 13 18 14 13
23 26 27 27 29 29 26 26 27 25 16 16 22 11 12 22 22 25 22 22 21 22 22 21 23 30 31 29 33 32 33 31 30 28 28 22 18 17 19 20 11 17 15 13
24 20 27 27 25 28 25 26 26 23 19 16 20 17 19 18 16 22 20 21 21 22 23 22 28 32 32 31 33 35 34 33 32 30 32 25 24 25 19 15 17 13 13 14
25 27 25 25 25 26 28 23 16 18 17 17 19 20 12 23 21 22 3 20 23 19 19 21 22 23 33 34 33 35 36 34 34 30 31 33 23 25 20 13 17 16 17 20
22 23 28 22 28 25 27 26 17 21 18 19 23 21 16 23 19 15 30 30 24 24 21 21 23 21 31 35 34 34 37 35 35 34 29 30 30 21 22 18 18 19 18 20
22 26 19 31 23 26 26 24 27 26 23 18 19 23 24 15 22 17 11 18 15 24 22 22 22 26 29 34 36 36 35 37 36 35 34 31 32 28 23 23 23 19 20 14
25 19 24 23 26 27 29 17 22 19 26 25 21 22 14 18 22 19 11 16 14 11 21 20 20 21 30 33 35 35 35 38 36 35 35 34 32 32 29 27 25 28 21 21
28 22 19 24 26 26 18 23 23 21 21 18 18 17 15 19 17 19 21 19 14 11 17 18 19 25 30 31 33 35 36 35 36 36 35 34 33 32 34 28 29 28 27 26
26 18 19 25 26 27 29 27 27 17 21 20 19 16 14 11 18 16 14 16 13 17 14 17 19 20 28 30 32 35 35 36 38 37 36 36 34 34 33 34 28 31 30 26
22 22 16 24 23 23 30 28 24 25 21 21 19 17 21 9 7 14 15 17 14 10 12 17 17 20 21 31 33 35 37 37 36 37 37 36 36 36 36 34 36 30 32 34
19 21 26 18 22 19 24 30 28 26 18 21 21 21 26 12 20 23 14 14 9 6 8 14 13 17 20 32 35 37 37 39 38 38 37 38 39 39 37 35 34 35 34 34
13 16 22 29 28 25 25 26 27 26 25 22 22 23 21 23 12 15 10 14 11 8 12 8 7 10 18 24 33 37 37 39 39 38 39 40 40 38 35 35 34 34 33 34
23 16 18 21 26 28 24 27 27 29 28 27 24 25 20 17 18 8 19 19 15 11 8 15 12 8 11 19 30 37 38 40 38 38 40 39 38 36 36 33 34 33 34 33
20 16 16 20 22 23 25 27 23 24 24 23 22 21 15 19 15 12 12 11 13 15 12 7 13 12 10 17 30 34 38 36 39 34 37 38 37 37 37 35 32 33 32 30
19 18 15 16 17 24 19 18 25 22 19 22 23 19 17 20 19 18 15 11 10 14 13 9 9 14 19 22 28 31 33 36 35 35 34 36 35 34 34 33 32 30 29 29
19 18 16 15 18 18 22 21 18 14 20 17 11 12 15 18 20 21 20 17 15 13 9 10 15 17 24 24 27 31 30 34 30 32 31 34 30 31 31 30 29 27 25 25
22 10 12 14 20 26 17 19 8 4 8 8 10 9 12 12 7 10 20 18 17 18 14 8 13 17 25 25 27 27 28 30 32 32 30 28 27 27 28 26 25 22 22 22
11 8 16 14 15 19 3 11 12 13 8 5 7 9 11 10 10 12 18 19 5 14 17 17 8 12 24 27 26 24 28 26 29 28 24 24 24 24 23 23 22 22 22 19
11 10 13 12 15 14 13 11 11 3 7 2 4 8 11 13 14 13 14 8 3 8 14 11 7 9 21 26 21 22 19 22 23 21 22 22 21 20 18 20 20 20 20 18
13 13 11 10 8 8 6 5 8 7 7 11 10 10 11 13 15 10 4 5 1 5 5 5 12 12 12 16 19 19 19 25 24 23 21 21 20 15 22 22 20 18 18 15
13 12 9 11 3 8 13 7 9 10 15 13 13 15 20 9 8 7 6 4 6 6 3 12 14 11 10 15 18 22 27 26 27 24 23 24 24 22 19 18 18 18 16 14
6 14 12 11 17 13 11 11 13 16 15 15 16 18 19 21 21 15 15 14 12 12 13 18 12 12 13 19 21 22 24 25 24 25 22 21 23 21 21 18 15 14 14 15
2 5 5 3 11 7 13 14 16 16 17 18 16 17 16 19 15 16 13 12 13 14 16 14 17 17 15 18 18 19 23 25 22 21 19 19 21 19 17 17 15 13 12 13
Wind_Direction
205 215 217 219 220 234 247 240 230 166 211 210 147 154 237 250 210 190 178 190 184 189 189 185 191 187 191 179 179 184 196 200 182 183 190 208 227 221 222 234 215 197 230 216
210 221 223 221 217 229 244 256 258 185 173 227 182 171 184 217 192 186 183 188 194 192 187 191 184 196 189 187 183 186 194 201 199 194 192 202 218 228 227 224 226 204 218 238
223 217 225 223 219 218 234 243 252 257 185 202 218 214 185 177 186 192 191 186 192 194 197 183 188 194 193 187 184 186 188 194 196 197 197 215 228 241 235 215 221 190 211 213
224 237 208 226 220 220 226 234 251 262 181 187 224 223 206 219 188 192 191 199 190 192 192 190 186 189 198 191 186 185 185 191 195 200 199 205 202 221 222 223 224 209 197 198
225 222 235 210 225 222 232 229 238 253 244 190 217 250 242 209 190 189 192 197 201 188 193 195 186 188 195 194 185 184 185 189 193 196 209 205 195 214 225 228 176 166 175 188
238 230 225 236 214 231 231 241 248 244 251 241 219 214 241 203 188 254 201 196 196 196 188 190 187 187 191 196 187 187 183 189 193 196 206 211 196 216 222 195 159 175 177 195
232 234 235 223 232 212 231 226 235 238 236 247 223 206 211 242 197 208 107 249 186 190 189 186 186 185 187 191 188 185 184 186 192 197 200 209 206 216 223 214 179 182 196 185
219 225 226 215 223 225 213 228 228 229 230 241 234 243 213 200 185 182 193 210 187 182 190 187 188 187 187 188 188 187 184 185 190 195 201 204 209 209 217 216 202 197 201 197
216 225 223 225 214 224 217 225 229 240 241 247 239 225 235 227 180 174 196 230 203 186 181 187 186 187 183 187 189 187 182 185 190 193 199 201 205 206 209 209 217 201 212 214
238 249 211 214 224 218 230 217 223 235 240 243 243 253 213 222 167 194 196 227 215 226 174 181 182 183 186 186 189 188 187 185 189 193 197 201 201 204 210 213 214 214 207 215
228 246 239 203 203 221 212 229 235 232 239 248 243 246 239 204 198 194 184 201 213 218 179 183 181 180 181 185 186 191 190 187 190 194 197 200 202 204 208 213 212 211 210 209
213 228 240 243 211 211 219 213 226 239 227 235 253 248 236 237 212 187 203 211 212 227 194 182 177 175 177 184 187 191 193 193 193 194 197 201 201 204 207 211 213 209 207 207
206 219 227 240 242 220 212 224 227 233 251 253 238 245 258 116 105 263 198 212 216 196 189 179 181 175 180 183 187 190 194 197 195 195 197 199 203 204 208 208 210 211 208 206
201 221 220 233 230 221 218 218 221 228 231 239 247 234 257 170 188 220 199 211 218 215 132 169 186 179 185 184 185 189 192 196 197 196 199 202 203 206 208 208 207 208 208 205
219 239 240 220 248 229 234 218 222 223 239 239 240 241 228 251 219 188 178 175 243 220 162 171 190 184 184 183 186 187 191 194 197 197 199 204 207 207 208 209 209 207 209 207
221 230 254 243 225 239 243 227 230 220 227 243 251 248 253 248 254 246 165 235 203 203 194 175 187 191 184 183 185 190 189 192 196 197 199 203 205 206 207 209 209 207 210 209
202 225 229 239 239 243 237 239 238 222 222 230 239 252 258 262 264 271 238 246 233 199 211 176 182 197 209 189 186 188 193 189 194 198 197 201 202 201 203 204 205 209 209 208
205 203 228 235 230 238 245 231 235 253 248 224 223 229 241 260 269 273 273 265 255 205 206 205 218 191 195 209 187 188 190 193 191 197 194 199 199 197 197 199 204 206 206 205
224 193 223 226 229 242 248 236 227 236 237 249 281 317 267 227 240 258 259 253 255 261 249 198 219 228 186 195 193 187 185 192 196 193 197 197 195 190 189 195 200 202 205 204
231 200 230 217 226 226 230 222 132 101 231 348 343 327 313 335 292 279 237 250 249 253 252 255 241 219 170 184 187 183 188 187 196 201 194 194 186 176 186 188 191 197 192 190
224 230 221 224 226 238 263 135 153 197 199 75 1 334 313 303 289 308 297 266 301 248 237 242 246 168 172 176 182 178 186 189 195 198 184 181 182 183 181 179 177 188 182 183
217 217 234 225 213 221 118 155 230 8 110 38 328 315 310 302 292 278 277 286 317 317 239 171 145 155 159 171 175 170 175 172 176 177 168 168 169 170 168 172 173 173 168 166
247 245 244 245 242 134 114 91 115 133 100 38 17 352 306 291 288 269 152 97 218 61 8 138 109 104 121 158 154 156 150 155 156 152 149 151 151 151 156 147 153 155 167 162
274 31 269 229 196 115 110 131 115 100 80 55 33 40 25 357 38 57 89 122 104 97 124 79 99 103 94 114 128 129 136 144 141 135 125 119 124 117 132 139 150 157 166 168
324 318 321 241 134 112 113 104 98 90 89 77 55 53 60 51 25 41 49 50 62 63 60 66 77 91 93 105 110 116 121 125 114 113 117 115 119 120 124 135 148 155 167 178
348 331 334 336 333 113 110 97 86 79 78 78 74 62 61 68 59 20 19 31 60 63 66 71 76 89 96 99 105 114 115 118 121 121 124 125 124 132 132 133 127 144 168 178